St. Louis, MO

4:42 PM CDT on April 27, 2017 (GMT -0500)
Lambert-Saint Louis International

Weather History for KSTL - January, 2014

Change the Weather History Date:

Friday, January 31, 2014

  Actual Average Record
Temperature  
Mean Temperature 34 °F 33 °F  
Max Temperature 39 °F 41 °F 74 °F (1989)
Min Temperature 28 °F 25 °F -9 °F (1936)
Degree Days  
Heating Degree Days 31 32  
Month to date heating degree days 1154 1028  
Since 1 July heating degree days 2994 2794  
Cooling Degree Days 0 0  
Month to date cooling degree days 0 0  
Year to date cooling degree days 0 0  
Moisture  
Dew Point 22 °F    
Average Humidity 64    
Maximum Humidity 92    
Minimum Humidity 35    
Precipitation  
Precipitation T in 0.08 in 1.62 in (1988)
Month to date precipitation 1.67 2.40  
Year to date precipitation 1.67 2.40  
Snow  
Snow 0.00 in 0.20 in 11.20 in (1958)
Month to date snowfall 15.8 5.6  
Since 1 July snowfall 21.4 10.7  
Snow Depth 0.00 in    
Sea Level Pressure  
Sea Level Pressure 30.06 in    
Wind  
Wind Speed 8 mph (NE)    
Max Wind Speed 14 mph    
Max Gust Speed 18 mph    
Visibility 6 miles    
Events      
T = Trace of Precipitation, MM = Missing Value Source: NWS Daily Summary

Daily Weather History Graph

Daily Weather History Graph

Search for Another Location

Airport or City:

Trip Planner

Search our weather history database for the weather conditions in past years. The results will help you decide how hot, cold, wet, or windy it might be!

Date:

Astronomy

Jan. 31, 2014 Rise Set
Actual Time 7:08 AM CST 5:22 PM CST
Civil Twilight 6:40 AM CST 5:50 PM CST
Nautical Twilight 6:08 AM CST 6:22 PM CST
Astronomical Twilight 5:36 AM CST 6:53 PM CST
Moon 7:19 AM CST (1/31) 6:45 PM CST (1/31)
Length of Visible Light 11h 10m
Length of Day
10h 13m
New Moon, 1% of the Moon is Illuminated
Jan 31
New Moon
Feb 6
First Quarter
Feb 14
Full
Feb 22
Last Quarter
Mar 1
New

Hourly Weather History & Observations

Time (CST) Temp. Windchill Dew Point Humidity Pressure Visibility Wind Dir Wind Speed Gust Speed Precip Events Conditions
12:51 AM 37.9 °F 34.4 °F 12.9 °F 36% 29.99 in 10.0 mi West 4.6 mph - N/A   Overcast
1:51 AM 35.1 °F 30.1 °F 18.0 °F 50% 30.01 in 10.0 mi North 5.8 mph - N/A   Overcast
2:51 AM 33.1 °F 24.9 °F 21.9 °F 64% 30.06 in 10.0 mi North 10.4 mph - N/A   Overcast
3:51 AM 30.9 °F 23.5 °F 21.0 °F 67% 30.04 in 9.0 mi North 8.1 mph - N/A   Overcast
4:51 AM 30.9 °F 22.8 °F 21.0 °F 67% 30.05 in 9.0 mi NNE 9.2 mph - N/A   Overcast
5:51 AM 30.0 °F 22.4 °F 19.9 °F 66% 30.06 in 9.0 mi NE 8.1 mph - N/A   Overcast
6:51 AM 30.0 °F 23.2 °F 19.0 °F 64% 30.11 in 10.0 mi North 6.9 mph - N/A   Overcast
7:51 AM 28.0 °F 19.3 °F 17.1 °F 63% 30.13 in 10.0 mi North 9.2 mph - N/A   Overcast
8:51 AM 28.0 °F 20.0 °F 16.0 °F 61% 30.14 in 10.0 mi NNE 8.1 mph - N/A   Overcast
9:51 AM 28.9 °F 21.1 °F 16.0 °F 58% 30.15 in 10.0 mi NE 8.1 mph - N/A   Overcast
10:51 AM 30.9 °F 23.5 °F 17.1 °F 57% 30.16 in 10.0 mi NE 8.1 mph - N/A   Overcast
11:51 AM 30.9 °F 22.8 °F 17.1 °F 57% 30.13 in 10.0 mi NE 9.2 mph - N/A   Overcast
12:51 PM 30.0 °F 21.7 °F 18.0 °F 61% 30.11 in 9.0 mi NNE 9.2 mph - N/A   Overcast
1:51 PM 30.0 °F 22.4 °F 19.0 °F 64% 30.08 in 8.0 mi NNE 8.1 mph - N/A   Overcast
2:51 PM 30.0 °F 22.4 °F 19.0 °F 64% 30.09 in 8.0 mi ENE 8.1 mph - N/A   Overcast
3:27 PM 30.2 °F 21.3 °F 19.4 °F 64% 30.05 in 5.0 mi East 10.4 mph - 0.00 in   Light Freezing Drizzle
3:35 PM 30.2 °F 22.6 °F 21.2 °F 69% 30.06 in 4.0 mi ENE 8.1 mph - 0.00 in   Light Freezing Drizzle
3:42 PM 30.2 °F 23.4 °F 21.2 °F 69% 30.05 in 3.0 mi ENE 6.9 mph - 0.00 in   Light Freezing Drizzle
3:51 PM 28.9 °F 21.1 °F 21.9 °F 75% 30.09 in 3.0 mi NE 8.1 mph - 0.00 in   Light Freezing Drizzle
4:35 PM 28.4 °F 21.2 °F 24.8 °F 86% 30.04 in 3.0 mi ENE 6.9 mph - 0.00 in   Light Freezing Drizzle
4:51 PM 28.9 °F 21.1 °F 24.1 °F 82% 30.07 in 3.0 mi ENE 8.1 mph - 0.00 in   Light Freezing Drizzle
5:15 PM 28.4 °F 23.3 °F 24.8 °F 86% 30.04 in 2.5 mi ENE 4.6 mph - 0.00 in   Light Freezing Drizzle
5:51 PM 28.9 °F 21.1 °F 25.0 °F 85% 30.08 in 2.5 mi ENE 8.1 mph - 0.00 in   Light Freezing Drizzle
6:51 PM 28.9 °F 21.9 °F 26.1 °F 89% 30.07 in 2.5 mi East 6.9 mph - 0.00 in   Light Freezing Drizzle
7:07 PM 30.2 °F 23.4 °F 26.6 °F 86% 30.04 in 3.0 mi ENE 6.9 mph - 0.00 in   Overcast
7:51 PM 30.0 °F 23.2 °F 26.1 °F 85% 30.07 in 3.0 mi NE 6.9 mph - 0.00 in   Overcast
8:51 PM 30.0 °F 22.4 °F 26.1 °F 85% 30.04 in 3.0 mi ENE 8.1 mph - N/A   Overcast
9:19 PM 30.2 °F 24.3 °F 26.6 °F 86% 30.02 in 3.0 mi NE 5.8 mph - 0.00 in   Light Freezing Drizzle
9:51 PM 30.0 °F 25.2 °F 27.0 °F 88% 30.04 in 3.0 mi ENE 4.6 mph - 0.00 in   Light Freezing Drizzle
10:04 PM 30.2 °F 23.4 °F 26.6 °F 86% 30.00 in 3.0 mi East 6.9 mph - 0.00 in   Overcast
10:51 PM 30.9 °F 23.5 °F 27.0 °F 85% 30.01 in 3.0 mi East 8.1 mph - 0.00 in   Overcast
11:22 PM 30.2 °F 22.6 °F 28.4 °F 93% 29.97 in 2.5 mi ENE 8.1 mph - N/A   Overcast
11:39 PM 30.2 °F 23.4 °F 28.4 °F 93% 29.96 in 1.5 mi East 6.9 mph - N/A   Overcast
11:51 PM 30.9 °F 25.2 °F 28.0 °F 89% 30.00 in 2.0 mi East 5.8 mph - N/A   Overcast